Tekamah, NE

12:00 AM CDT on April 28, 2017 (GMT -0500)
Tekamah

Weather History for KTQE - January, 2013

Change the Weather History Date:

Tuesday, January 1, 2013

  Actual Average Record
Temperature  
Mean Temperature 6 °F -  
Max Temperature 15 °F 28 °F 56 °F (1954)
Min Temperature -4 °F 9 °F -20 °F (1974)
Degree Days  
Heating Degree Days 60    
Moisture  
Dew Point 0 °F    
Average Humidity 80    
Maximum Humidity 87    
Minimum Humidity 73    
Precipitation  
Precipitation 0.00 in - - ()
Sea Level Pressure  
Sea Level Pressure 30.28 in    
Wind  
Wind Speed 7 mph (SSE)    
Max Wind Speed 12 mph    
Max Gust Speed -    
Visibility 7 miles    
Events      
Averages and records for this station are not official NWS values.
T = Trace of Precipitation, MM = Missing Value Source: NWS Daily Summary

Daily Weather History Graph

Daily Weather History Graph

Search for Another Location

Airport or City:

Trip Planner

Search our weather history database for the weather conditions in past years. The results will help you decide how hot, cold, wet, or windy it might be!

Date:

Astronomy

Jan. 01, 2013 Rise Set
Actual Time 7:52 AM CST 5:05 PM CST
Civil Twilight 7:20 AM CST 5:36 PM CST
Nautical Twilight 6:45 AM CST 6:11 PM CST
Astronomical Twilight 6:11 AM CST 6:45 PM CST
Moon 9:41 PM CST (1/1) 10:01 AM CST (1/1)
Length of Visible Light 10h 15m
Length of Day
9h 13m
Waning Gibbous, 83% of the Moon is Illuminated
Jan 1
Waning Gibbous
Jan 4
Last Quarter
Jan 11
New
Jan 18
First Quarter
Jan 26
Full

Hourly Weather History & Observations

Time (CST) Temp. Windchill Dew Point Humidity Pressure Visibility Wind Dir Wind Speed Gust Speed Precip Events Conditions
12:54 AM 5.0 °F -10.0 °F -0.9 °F 76% 30.32 in 10.0 mi North 10.4 mph - N/A   Clear
1:54 AM 1.9 °F -12.9 °F -2.9 °F 80% 30.33 in 9.0 mi North 9.2 mph - N/A   Clear
3:54 AM -2.0 °F -15.4 °F -6.0 °F 83% 30.35 in 9.0 mi NNW 6.9 mph - N/A   Clear
4:54 AM -2.9 °F -11.2 °F -8.0 °F 79% 30.34 in 8.0 mi NW 3.5 mph - N/A   Clear
5:54 AM -2.9 °F -15.0 °F -6.0 °F 87% 30.34 in 7.0 mi NW 5.8 mph - N/A   Clear
6:54 AM -2.9 °F - -8.0 °F 79% 30.33 in 9.0 mi Calm Calm - N/A   Clear
8:54 AM -4.0 °F - -8.0 °F 83% 30.35 in 7.0 mi Calm Calm - N/A   Clear
9:54 AM 1.0 °F -8.7 °F -4.0 °F 79% 30.36 in 8.0 mi South 4.6 mph - N/A   Clear
10:54 AM 5.0 °F -6.9 °F -0.0 °F 80% 30.38 in 8.0 mi SSE 6.9 mph - N/A   Clear
11:54 AM 9.0 °F 0.6 °F 1.9 °F 73% 30.36 in 9.0 mi SSE 4.6 mph - N/A   Clear
12:54 PM 12.0 °F 1.5 °F 5.0 °F 73% 30.32 in 9.0 mi South 6.9 mph - N/A   Clear
1:54 PM 15.1 °F 4.2 °F 8.1 °F 74% 30.30 in 7.0 mi SSE 8.1 mph - N/A   Scattered Clouds
3:54 PM 15.1 °F 2.5 °F 9.0 °F 77% 30.26 in 6.0 mi South 10.4 mph - N/A   Haze
4:54 PM 12.0 °F -2.0 °F 6.1 °F 77% 30.25 in 6.0 mi South 11.5 mph - N/A   Haze
5:54 PM 7.0 °F -5.7 °F 1.9 °F 80% 30.25 in 7.0 mi South 8.1 mph - N/A   Clear
6:31 PM 8.6 °F -3.7 °F 3.2 °F 79% 30.17 in 6.0 mi South 8.1 mph - N/A   Haze
6:54 PM 7.0 °F -4.5 °F 1.9 °F 80% 30.24 in 6.0 mi South 6.9 mph - N/A   Haze
7:54 PM 5.0 °F -6.9 °F 1.9 °F 87% 30.23 in 5.0 mi SSE 6.9 mph - N/A   Clear
8:54 PM 3.0 °F -9.3 °F -0.9 °F 84% 30.21 in 5.0 mi SSE 6.9 mph - N/A   Clear
9:54 PM 3.9 °F -8.2 °F -0.0 °F 84% 30.19 in 5.0 mi SE 6.9 mph - N/A   Clear
10:54 PM 3.0 °F -9.3 °F -2.0 °F 80% 30.17 in 5.0 mi SE 6.9 mph - N/A   Haze
11:54 PM 5.0 °F -10.0 °F 1.0 °F 84% 30.15 in 4.0 mi SE 10.4 mph - N/A   Clear